Weather History for Gage, OK

Change the Weather History Date:

Friday, May 10, 2013

  Actual Average Record
Temperature  
Mean Temperature 62 °F -  
Max Temperature 72 °F 77 °F 98 °F (1967)
Min Temperature 50 °F 52 °F 34 °F (1981)
Degree Days  
Heating Degree Days 3    
Growing Degree Days 12 (Base 50)    
Moisture  
Dew Point 49 °F    
Average Humidity 73    
Maximum Humidity 94    
Minimum Humidity 37    
Precipitation  
Precipitation 0.00 in - - ()
Sea Level Pressure  
Sea Level Pressure 30.07 in    
Wind  
Wind Speed 9 mph (North)    
Max Wind Speed 16 mph    
Max Gust Speed 30 mph    
Visibility 10 miles    
Events Thunderstorm    
Averages and records for this station are not official NWS values.
T = Trace of Precipitation, MM = Missing Value Source: NWS Daily Summary

Daily Weather History Graph

Daily Weather History Graph

Search for Another Location

Airport:

Trip Planner

Search our weather history database for the weather conditions in past years. The results will help you decide how hot, cold, wet, or windy it might be!

Date:

Astronomy

May. 10, 2013 Rise Set
Actual Time 6:36 AM CDT 8:34 PM CDT
Civil Twilight 6:08 AM CDT 9:03 PM CDT
Nautical Twilight 5:34 AM CDT 9:37 PM CDT
Astronomical Twilight 4:57 AM CDT 10:14 PM CDT
Moon 7:02 AM CDT (5/10) 9:25 PM CDT (5/10)
Length of Visible Light 14h 54m
Length of Day
13h 58m
New Moon, 0% of the Moon is Illuminated
May 10
New Moon
May 17
First Quarter
May 24
Full
May 31
Last Quarter
Jun 8
New

Hourly Weather History & Observations

Time (CDT) Temp. Dew Point Humidity Pressure Visibility Wind Dir Wind Speed Gust Speed Precip Events Conditions
12:04 AM 57.2 °F 53.6 °F 88% 30.07 in 10.0 mi West 5.8 mph - N/A Thunderstorm Thunderstorm
12:19 AM 60.8 °F 51.8 °F 72% 30.07 in 10.0 mi WNW 12.7 mph - N/A   Scattered Clouds
12:53 AM 59.0 °F 51.8 °F 77% 30.07 in 10.0 mi WNW 10.4 mph - N/A   Partly Cloudy
1:53 AM 55.9 °F 52.0 °F 87% 30.03 in 10.0 mi West 6.9 mph - N/A   Clear
2:53 AM 55.0 °F 51.1 °F 86% 30.01 in 10.0 mi North 6.9 mph - N/A   Clear
3:41 AM 55.4 °F 51.8 °F 88% 30.06 in 10.0 mi North 5.8 mph - N/A   Mostly Cloudy
3:50 AM 53.6 °F 51.8 °F 94% 30.05 in 10.0 mi North 6.9 mph - N/A   Scattered Clouds
3:53 AM 54.0 °F 52.0 °F 93% 30.01 in 10.0 mi North 6.9 mph - N/A   Scattered Clouds
4:02 AM 53.6 °F 51.8 °F 94% 30.05 in 10.0 mi North 6.9 mph - N/A   Mostly Cloudy
4:10 AM 53.6 °F 51.8 °F 94% 30.06 in 10.0 mi North 9.2 mph - N/A   Partly Cloudy
4:22 AM 55.4 °F 51.8 °F 88% 30.06 in 10.0 mi North 10.4 mph - N/A   Mostly Cloudy
4:32 AM 55.4 °F 51.8 °F 88% 30.07 in 10.0 mi North 9.2 mph - N/A   Mostly Cloudy
4:53 AM 55.0 °F 52.0 °F 89% 30.01 in 10.0 mi North 11.5 mph - N/A   Overcast
5:19 AM 53.6 °F 51.8 °F 94% 30.05 in 10.0 mi North 11.5 mph - N/A   Scattered Clouds
5:53 AM 53.1 °F 51.1 °F 93% 30.02 in 10.0 mi North 10.4 mph - N/A   Partly Cloudy
6:53 AM 52.0 °F 50.0 °F 93% 30.04 in 9.0 mi North 8.1 mph - N/A   Clear
7:25 AM 53.6 °F 50.0 °F 88% 30.09 in 10.0 mi North 9.2 mph - N/A   Mostly Cloudy
7:53 AM 53.6 °F 51.8 °F 94% 30.11 in 10.0 mi North 10.4 mph - N/A   Overcast
8:53 AM 57.0 °F 50.0 °F 77% 30.10 in 10.0 mi North 11.5 mph - N/A   Overcast
9:30 AM 59.0 °F 50.0 °F 72% 30.13 in 10.0 mi North 11.5 mph - N/A   Scattered Clouds
9:53 AM 60.1 °F 48.9 °F 67% 30.11 in 10.0 mi North 11.5 mph - N/A   Mostly Cloudy
10:53 AM 62.1 °F 48.9 °F 62% 30.11 in 10.0 mi NNE 11.5 mph - N/A   Overcast
11:53 AM 62.6 °F 50.0 °F 63% 30.14 in 10.0 mi NNE 16.1 mph - N/A   Overcast
12:53 PM 66.9 °F 48.9 °F 52% 30.10 in 10.0 mi NE 16.1 mph 21.9 mph N/A   Scattered Clouds
1:53 PM 70.0 °F 48.0 °F 46% 30.09 in 10.0 mi NNE 10.4 mph 19.6 mph N/A   Mostly Cloudy
2:53 PM 71.1 °F 46.0 °F 41% 30.07 in 10.0 mi NNE 10.4 mph 21.9 mph N/A   Partly Cloudy
3:53 PM 72.0 °F 45.0 °F 38% 30.05 in 10.0 mi NNE 13.8 mph 29.9 mph N/A   Partly Cloudy
4:53 PM 72.0 °F 45.0 °F 38% 30.04 in 10.0 mi NE 11.5 mph 23.0 mph N/A   Partly Cloudy
5:53 PM 72.0 °F 44.1 °F 37% 30.04 in 10.0 mi NE 15.0 mph - N/A   Partly Cloudy
6:53 PM 70.0 °F 43.0 °F 38% 30.04 in 10.0 mi NE 13.8 mph 19.6 mph N/A   Clear
7:53 PM 68.0 °F 44.1 °F 42% 30.05 in 10.0 mi NE 8.1 mph - N/A   Clear
8:53 PM 63.0 °F 45.0 °F 52% 30.07 in 10.0 mi ENE 3.5 mph - N/A   Clear
9:53 PM 55.9 °F 46.0 °F 69% 30.10 in 10.0 mi Calm Calm - N/A   Mostly Cloudy
10:53 PM 54.0 °F 46.0 °F 75% 30.12 in 10.0 mi South 3.5 mph - N/A   Clear
11:53 PM 50.0 °F 46.0 °F 86% 30.13 in 10.0 mi West 6.9 mph - N/A   Clear